Time,TemperatureF,DewpointF,PressureIn,WindDirection,WindDirectionDegrees,WindSpeedMPH,WindSpeedGustMPH,Humidity,HourlyPrecipIn,Conditions,Clouds,dailyrainin,SolarRadiationWatts/m^2,SoftwareType,DateUTC
2013-04-18 00:03:00,67.0,61.0,-100.00,West,267,5.0,9.0,81,0.00,,,0.00,0.000000,,2013-04-18 04:03:00,
2013-04-18 00:33:00,64.0,59.0,-100.00,West,261,3.0,7.0,85,0.00,,,0.00,0.000000,,2013-04-18 04:33:00,
2013-04-18 00:43:00,64.0,59.0,-100.00,West,261,3.0,7.0,85,0.00,,,0.00,0.000000,,2013-04-18 04:43:00,
2013-04-18 00:53:00,64.0,59.0,-100.00,West,261,3.0,7.0,85,0.00,,,0.00,0.000000,,2013-04-18 04:53:00,
2013-04-18 01:02:00,64.0,59.0,-100.00,West,261,3.0,7.0,85,0.00,,,0.00,0.000000,,2013-04-18 05:02:00,
2013-04-18 01:33:00,62.0,59.0,-100.00,WSW,245,1.0,5.0,91,0.00,,,0.00,0.000000,,2013-04-18 05:33:00,
2013-04-18 01:42:00,62.0,59.0,-100.00,WSW,245,1.0,5.0,91,0.00,,,0.00,0.000000,,2013-04-18 05:42:00,
2013-04-18 01:52:00,62.0,59.0,-100.00,WSW,245,1.0,5.0,91,0.00,,,0.00,0.000000,,2013-04-18 05:52:00,
2013-04-18 02:02:00,62.0,59.0,-100.00,WSW,245,1.0,5.0,91,0.00,,,0.00,0.000000,,2013-04-18 06:02:00,
2013-04-18 02:32:00,61.0,59.0,-100.00,SW,214,4.0,6.0,94,0.00,,,0.00,0.000000,,2013-04-18 06:32:00,
2013-04-18 02:42:00,61.0,59.0,-100.00,SW,214,4.0,6.0,94,0.00,,,0.00,0.000000,,2013-04-18 06:42:00,
2013-04-18 02:52:00,61.0,59.0,-100.00,SW,214,4.0,6.0,94,0.00,,,0.00,0.000000,,2013-04-18 06:52:00,
2013-04-18 03:02:00,61.0,59.0,-100.00,SW,214,4.0,6.0,94,0.00,,,0.00,0.000000,,2013-04-18 07:02:00,
2013-04-18 03:32:00,60.0,59.0,-100.00,SSW,193,0.0,4.0,97,0.00,,,0.00,0.000000,,2013-04-18 07:32:00,
2013-04-18 03:42:00,60.0,59.0,-100.00,SSW,193,0.0,4.0,97,0.00,,,0.00,0.000000,,2013-04-18 07:42:00,
2013-04-18 03:53:00,60.0,59.0,-100.00,SSW,193,0.0,4.0,97,0.00,,,0.00,0.000000,,2013-04-18 07:53:00,
2013-04-18 04:02:00,60.0,59.0,-100.00,SSW,193,0.0,4.0,97,0.00,,,0.00,0.000000,,2013-04-18 08:02:00,
2013-04-18 04:32:00,59.0,58.0,-100.00,South,179,2.0,5.0,98,0.00,,,0.00,0.000000,,2013-04-18 08:32:00,
2013-04-18 04:42:00,59.0,58.0,-100.00,South,179,2.0,5.0,98,0.00,,,0.00,0.000000,,2013-04-18 08:42:00,
2013-04-18 04:52:00,59.0,58.0,-100.00,South,179,2.0,5.0,98,0.00,,,0.00,0.000000,,2013-04-18 08:52:00,
2013-04-18 05:02:00,59.0,58.0,-100.00,South,179,2.0,5.0,98,0.00,,,0.00,0.000000,,2013-04-18 09:02:00,
2013-04-18 05:33:00,58.0,57.0,-100.00,ESE,122,3.0,5.0,98,0.00,,,0.00,0.000000,,2013-04-18 09:33:00,
2013-04-18 05:43:00,58.0,57.0,-100.00,ESE,122,3.0,5.0,98,0.00,,,0.00,0.000000,,2013-04-18 09:43:00,
2013-04-18 05:53:00,58.0,57.0,-100.00,ESE,122,3.0,5.0,98,0.00,,,0.00,0.000000,,2013-04-18 09:53:00,
2013-04-18 06:03:00,58.0,57.0,-100.00,ESE,122,3.0,5.0,98,0.00,,,0.00,0.000000,,2013-04-18 10:03:00,
2013-04-18 06:33:00,58.0,57.0,-100.00,SSE,168,2.0,4.0,98,0.00,,,0.00,0.000000,,2013-04-18 10:33:00,
2013-04-18 06:42:00,58.0,57.0,-100.00,SSE,168,2.0,4.0,98,0.00,,,0.00,0.000000,,2013-04-18 10:42:00,
2013-04-18 06:53:00,58.0,57.0,-100.00,SSE,168,2.0,4.0,98,0.00,,,0.00,0.000000,,2013-04-18 10:53:00,
2013-04-18 07:03:00,58.0,57.0,-100.00,SSE,168,2.0,4.0,98,0.00,,,0.00,0.000000,,2013-04-18 11:03:00,
2013-04-18 07:32:00,58.0,57.0,-100.00,SE,126,2.0,3.0,98,0.00,,,0.00,1.000000,,2013-04-18 11:32:00,
2013-04-18 07:42:00,58.0,57.0,-100.00,SE,126,2.0,3.0,98,0.00,,,0.00,1.000000,,2013-04-18 11:42:00,
2013-04-18 07:52:00,58.0,57.0,-100.00,SE,126,2.0,3.0,98,0.00,,,0.00,1.000000,,2013-04-18 11:52:00,
2013-04-18 08:02:00,58.0,57.0,-100.00,SE,126,2.0,3.0,98,0.00,,,0.00,1.000000,,2013-04-18 12:02:00,
2013-04-18 08:32:00,60.0,59.0,-100.00,South,176,3.0,5.0,98,0.00,,,0.00,41.000000,,2013-04-18 12:32:00,
2013-04-18 08:42:00,60.0,59.0,-100.00,South,176,3.0,5.0,98,0.00,,,0.00,41.000000,,2013-04-18 12:42:00,
2013-04-18 08:52:00,60.0,59.0,-100.00,South,176,3.0,5.0,98,0.00,,,0.00,41.000000,,2013-04-18 12:52:00,
2013-04-18 09:03:00,60.0,59.0,-100.00,South,176,3.0,5.0,98,0.00,,,0.00,41.000000,,2013-04-18 13:03:00,
2013-04-18 09:33:00,65.0,63.0,-100.00,SSW,210,3.0,6.0,94,0.00,,,0.00,101.000000,,2013-04-18 13:33:00,
2013-04-18 09:43:00,65.0,63.0,-100.00,SSW,210,3.0,6.0,94,0.00,,,0.00,101.000000,,2013-04-18 13:43:00,
2013-04-18 09:53:00,65.0,63.0,-100.00,SSW,210,3.0,6.0,94,0.00,,,0.00,101.000000,,2013-04-18 13:53:00,
2013-04-18 10:03:00,65.0,63.0,-100.00,SSW,210,3.0,6.0,94,0.00,,,0.00,101.000000,,2013-04-18 14:03:00,
2013-04-18 10:33:00,72.0,67.0,-100.00,WSW,237,6.0,9.0,84,0.00,,,0.00,245.000000,,2013-04-18 14:33:00,
2013-04-18 10:43:00,72.0,67.0,-100.00,WSW,237,6.0,9.0,84,0.00,,,0.00,245.000000,,2013-04-18 14:43:00,
2013-04-18 10:52:00,72.0,67.0,-100.00,WSW,237,6.0,9.0,84,0.00,,,0.00,245.000000,,2013-04-18 14:52:00,
2013-04-18 11:03:00,72.0,67.0,-100.00,WSW,237,6.0,9.0,84,0.00,,,0.00,245.000000,,2013-04-18 15:03:00,
2013-04-18 11:33:00,77.0,68.0,-100.00,WSW,256,5.0,14.0,75,0.00,,,0.00,495.000000,,2013-04-18 15:33:00,
2013-04-18 11:43:00,77.0,68.0,-100.00,WSW,256,5.0,14.0,75,0.00,,,0.00,495.000000,,2013-04-18 15:43:00,
2013-04-18 11:53:00,77.0,68.0,-100.00,WSW,256,5.0,14.0,75,0.00,,,0.00,495.000000,,2013-04-18 15:53:00,
2013-04-18 12:03:00,77.0,68.0,-100.00,WSW,256,5.0,14.0,75,0.00,,,0.00,495.000000,,2013-04-18 16:03:00,
2013-04-18 12:33:00,79.0,67.0,-100.00,SW,235,6.0,14.0,67,0.00,,,0.00,560.000000,,2013-04-18 16:33:00,
2013-04-18 12:43:00,79.0,67.0,-100.00,SW,235,6.0,14.0,67,0.00,,,0.00,560.000000,,2013-04-18 16:43:00,
2013-04-18 12:53:00,79.0,67.0,-100.00,SW,235,6.0,14.0,67,0.00,,,0.00,560.000000,,2013-04-18 16:53:00,
2013-04-18 13:03:00,79.0,67.0,-100.00,SW,235,6.0,14.0,67,0.00,,,0.00,560.000000,,2013-04-18 17:03:00,
2013-04-18 13:33:00,76.0,62.0,-100.00,West,260,6.0,15.0,63,0.00,,,0.00,333.000000,,2013-04-18 17:33:00,
2013-04-18 13:43:00,76.0,62.0,-100.00,West,260,6.0,15.0,63,0.00,,,0.00,333.000000,,2013-04-18 17:43:00,
2013-04-18 13:52:00,76.0,62.0,-100.00,West,260,6.0,15.0,63,0.00,,,0.00,333.000000,,2013-04-18 17:52:00,
2013-04-18 14:03:00,76.0,62.0,-100.00,West,260,6.0,15.0,63,0.00,,,0.00,333.000000,,2013-04-18 18:03:00,
2013-04-18 14:33:00,74.0,67.0,-100.00,WNW,292,6.0,17.0,78,0.00,,,0.00,298.000000,,2013-04-18 18:33:00,
2013-04-18 14:43:00,74.0,67.0,-100.00,WNW,292,6.0,17.0,78,0.00,,,0.00,298.000000,,2013-04-18 18:43:00,
2013-04-18 14:53:00,74.0,67.0,-100.00,WNW,292,6.0,17.0,78,0.00,,,0.00,298.000000,,2013-04-18 18:53:00,
2013-04-18 15:03:00,74.0,67.0,-100.00,WNW,292,6.0,17.0,78,0.00,,,0.00,298.000000,,2013-04-18 19:03:00,
2013-04-18 15:33:00,82.0,66.0,-100.00,SW,234,6.0,11.0,59,0.00,,,0.00,823.000000,,2013-04-18 19:33:00,
2013-04-18 15:43:00,82.0,66.0,-100.00,SW,234,6.0,11.0,59,0.00,,,0.00,823.000000,,2013-04-18 19:43:00,
2013-04-18 15:53:00,82.0,66.0,-100.00,SW,234,6.0,11.0,59,0.00,,,0.00,823.000000,,2013-04-18 19:53:00,
2013-04-18 16:03:00,82.0,66.0,-100.00,SW,234,6.0,11.0,59,0.00,,,0.00,823.000000,,2013-04-18 20:03:00,
2013-04-18 16:32:00,82.0,66.0,-100.00,West,262,8.0,17.0,59,0.00,,,0.00,635.000000,,2013-04-18 20:32:00,
2013-04-18 16:43:00,82.0,66.0,-100.00,West,262,8.0,17.0,59,0.00,,,0.00,635.000000,,2013-04-18 20:43:00,
2013-04-18 16:52:00,82.0,66.0,-100.00,West,262,8.0,17.0,59,0.00,,,0.00,635.000000,,2013-04-18 20:52:00,
2013-04-18 17:03:00,82.0,66.0,-100.00,West,262,8.0,17.0,59,0.00,,,0.00,635.000000,,2013-04-18 21:03:00,
2013-04-18 18:33:00,78.0,62.0,-100.00,WSW,243,8.0,14.0,59,-99.99,,,0.00,104.000000,,2013-04-18 22:33:00,
2013-04-18 18:42:00,78.0,62.0,-100.00,WSW,243,8.0,14.0,59,-99.99,,,0.00,104.000000,,2013-04-18 22:42:00,
2013-04-18 18:53:00,78.0,62.0,-100.00,WSW,243,8.0,14.0,59,-99.99,,,0.00,104.000000,,2013-04-18 22:53:00,
2013-04-18 19:04:00,78.0,62.0,-100.00,WSW,243,8.0,14.0,59,-99.99,,,0.00,104.000000,,2013-04-18 23:04:00,
2013-04-18 19:32:00,76.0,62.0,-100.00,WSW,237,9.0,20.0,61,0.00,,,0.00,36.000000,,2013-04-18 23:32:00,
2013-04-18 19:42:00,76.0,62.0,-100.00,WSW,237,9.0,20.0,61,0.00,,,0.00,36.000000,,2013-04-18 23:42:00,
2013-04-18 19:52:00,76.0,62.0,-100.00,WSW,237,9.0,20.0,61,0.00,,,0.00,36.000000,,2013-04-18 23:52:00,
2013-04-18 20:01:00,76.0,62.0,-100.00,WSW,237,9.0,20.0,61,0.00,,,0.00,36.000000,,2013-04-19 00:01:00,
2013-04-18 20:32:00,72.0,61.0,-100.00,SW,236,6.0,18.0,68,0.00,,,0.00,9.000000,,2013-04-19 00:32:00,
2013-04-18 20:42:00,72.0,61.0,-100.00,SW,236,6.0,18.0,68,0.00,,,0.00,9.000000,,2013-04-19 00:42:00,
2013-04-18 20:52:00,72.0,61.0,-100.00,SW,236,6.0,18.0,68,0.00,,,0.00,9.000000,,2013-04-19 00:52:00,
2013-04-18 21:01:00,72.0,61.0,-100.00,SW,236,6.0,18.0,68,0.00,,,0.00,9.000000,,2013-04-19 01:01:00,
2013-04-18 21:32:00,69.0,62.0,-100.00,WSW,249,5.0,10.0,78,0.00,,,0.00,0.000000,,2013-04-19 01:32:00,
2013-04-18 21:42:00,69.0,62.0,-100.00,WSW,249,5.0,10.0,78,0.00,,,0.00,0.000000,,2013-04-19 01:42:00,
2013-04-18 21:52:00,69.0,62.0,-100.00,WSW,249,5.0,10.0,78,0.00,,,0.00,0.000000,,2013-04-19 01:52:00,
2013-04-18 22:02:00,69.0,62.0,-100.00,WSW,249,5.0,10.0,78,0.00,,,0.00,0.000000,,2013-04-19 02:02:00,
2013-04-18 22:32:00,65.0,61.0,-100.00,WSW,255,4.0,6.0,88,0.00,,,0.00,0.000000,,2013-04-19 02:32:00,
2013-04-18 22:42:00,65.0,61.0,-100.00,WSW,255,4.0,6.0,88,0.00,,,0.00,0.000000,,2013-04-19 02:42:00,
2013-04-18 22:52:00,65.0,61.0,-100.00,WSW,255,4.0,6.0,88,0.00,,,0.00,0.000000,,2013-04-19 02:52:00,
2013-04-18 23:01:00,65.0,61.0,-100.00,WSW,255,4.0,6.0,88,0.00,,,0.00,0.000000,,2013-04-19 03:01:00,
2013-04-18 23:33:00,64.0,62.0,-100.00,WSW,239,5.0,7.0,93,0.00,,,0.00,0.000000,,2013-04-19 03:33:00,
2013-04-18 23:43:00,64.0,62.0,-100.00,WSW,239,5.0,7.0,93,0.00,,,0.00,0.000000,,2013-04-19 03:43:00,
2013-04-18 23:53:00,64.0,62.0,-100.00,WSW,239,5.0,7.0,93,0.00,,,0.00,0.000000,,2013-04-19 03:53:00,